Home   Weather   Nashville   Past weeks

Flag for USA Past Weather in Nashville, Tennessee, USA — Yesterday and Last 2 Weeks

Now
42 °F

Low clouds.


Feels Like: 38 °F
Forecast: 41 / 50 °F
Wind: 6 mph from North

Location: Nashville International Airport

Current Time: Dec 4, 2016 at 6:26:03 am

Latest Report: Dec 4, 2016 at 5:53 am


Visibility: 8 mi

Pressure: 30.13 "Hg

Humidity: 92%

Dew Point: 40 °F

Location of NashvilleLocation

Past Weather in Nashville — Graph

°F

Nashville Temperature Yesterday

Maximum temperature yesterday: 45 °F (at 11:53 am)
Minimum temperature yesterday: 37 °F (at 5:53 am)
Average temperature yesterday: 42 °F

High & Low Weather Summary for the Past Weeks

 TemperatureHumidityPressure
High71 °F (Nov 29, 1:53 pm)97% (Nov 29, 6:53 am)30.45 "Hg (Nov 29, 6:53 am)
Low26 °F (Nov 21, 5:53 am)13% (Nov 23, 10:53 am)29.42 "Hg (Nov 28, 5:53 pm)
Average48 °F60%30.14 "Hg
* Reported Nov 19 4:53 am — Dec 4 4:53 am, Nashville, Weather by CustomWeather, © 2016

Note: Actual official high and low records may vary slightly from our data, if they occured in-between our weather recording intervals... More about our weather records

Advertising

Nashville Weather History for the Previous 24 Hours

Scroll right to see more
 ConditionsComfort  
Time TempWeatherWind HumidityBarometerVisibility
4:53 am
Sun, Dec 4
42 °FMostly cloudy.7 mph92%30.12 "Hg9 mi
3:53 am41 °FLight rain. Mostly cloudy.7 mph93%30.13 "Hg7 mi
2:53 am41 °FLight rain. Fog.7 mph89%30.15 "Hg5 mi
1:53 am40 °FLight rain. Fog.6 mph93%30.18 "Hg6 mi
12:53 am40 °FLight rain. Mostly cloudy.5 mph89%30.20 "Hg7 mi
11:53 pm
Sat, Dec 3
40 °FLight rain. Overcast.6 mph89%30.20 "Hg8 mi
10:53 pm40 °FLight rain. Overcast.6 mph89%30.22 "Hg7 mi
9:53 pm40 °FLight rain. Fog.7 mph86%30.25 "Hg6 mi
8:53 pm41 °FLight rain. Overcast.5 mph82%30.27 "Hg8 mi
7:53 pm41 °FLight rain. Overcast.8 mph76%30.28 "Hg9 mi
6:53 pm42 °FLight rain. Overcast.6 mph76%30.29 "Hg10 mi
5:53 pm43 °FLight rain. Mostly cloudy.6 mph68%30.27 "Hg10 mi
4:53 pm44 °FOvercast.7 mph60%30.27 "Hg10 mi
3:53 pm44 °FOvercast.5 mph60%30.28 "Hg10 mi
2:53 pm44 °FOvercast.6 mph60%30.30 "Hg10 mi
1:53 pm44 °FOvercast.5 mph58%30.31 "Hg10 mi
12:53 pm44 °FOvercast.3 mph58%30.32 "Hg10 mi
11:53 am45 °FOvercast.3 mph56%30.34 "Hg10 mi
10:53 am44 °FOvercast.6 mph58%30.36 "Hg10 mi
9:53 am44 °FOvercast.8 mph60%30.36 "Hg10 mi
8:53 am42 °FMostly cloudy.8 mph68%30.34 "Hg10 mi
7:53 am41 °FMostly cloudy.5 mph74%30.37 "Hg9 mi
6:53 am39 °FPartly sunny.6 mph76%30.36 "Hg9 mi
Weather by CustomWeather, © 2016

See weather overviewHow to use our weather pages